Miscellaneous Local Product
Issued by NWS Hastings, NE

Home | Current Version | Previous Version | Graphics & Text | Print | Product List | Glossary On
Versions: 1 2 3 4 5 6 7 8 9 10 11 12 13 14 15 16 17 18 19 20 21 22 23 24 25 26 27 28 29 30 31 32 33 34 35 36 37 38 39 40 41 42 43 44 45 46 47 48 49 50
010
AXUS43 KGID 151402
MISGRI

GID CWA HOURLY WEATHER ROUNDUP
NATIONAL WEATHER SERVICE HASTINGS NE
800 AM CST FRI DEC 15 2017

NOTE: "FAIR" INDICATES FEW OR NO CLOUDS BELOW 12,000 FEET WITH NO
SIGNIFICANT WEATHER AND/OR OBSTRUCTIONS TO VISIBILITY.

...SOUTH CENTRAL NEBRASKA...

CITY           SKY/WX    TMP DP  RH WIND       PRES   REMARKS
GRAND ISLAND   CLEAR     25  22  88 SW10      30.03F WCI  15
KEARNEY        CLEAR     20  17  88 SW8       30.04F WCI  10
HASTINGS       CLEAR     21  17  84 SW6       30.06F WCI  13
ORD            CLOUDY    22  18  85 CALM      29.97F
YORK           CLEAR     25  23  93 SW5       30.05F WCI  19
AURORA         CLEAR     24  21  89 SW9       30.03F WCI  14
LEXINGTON      CLOUDY    23  18  81 W10       30.03S WCI  12
HOLDREGE       CLOUDY    21  18  86 SW9       30.04F WCI  11
HEBRON         CLEAR     24  21  90 SW8       30.10F WCI  15

...NEBRASKA PANHANDLE...

CITY           SKY/WX    TMP DP  RH WIND       PRES   REMARKS
CHADRON        CLOUDY    19  13  77 SW12      29.91F WCI   7
ALLIANCE       CLOUDY    26  21  81 W14       29.93F WCI  14
SCOTTSBLUFF    CLOUDY    15  11  83 NW7       29.97F WCI   5
SIDNEY         CLOUDY    28  14  55 W15       29.98F WCI  16

...WESTERN AND NORTH CENTRAL NEBRASKA...

CITY           SKY/WX    TMP DP  RH WIND       PRES   REMARKS
VALENTINE      PTCLDY    24  19  81 W10       29.92F WCI  14
AINSWORTH      CLOUDY    25  21  86 W7        29.91F WCI  17
ONEILL         CLOUDY    27  24  89 SW8       29.95F WCI  18
BROKEN BOW     CLOUDY    23  17  78 W10       29.97F WCI  12
IMPERIAL       CLOUDY    19  14  81 W12       30.01F WCI   7
NORTH PLATTE   CLOUDY    14  11  87 W3        30.00F
MCCOOK         CLOUDY    16  12  84 W8        30.05F WCI   5

...EASTERN NEBRASKA...

CITY           SKY/WX    TMP DP  RH WIND       PRES   REMARKS
NORFOLK        PTCLDY    27  23  85 SW8       29.97F WCI  19
SO SIOUX CITY  MOCLDY    32  25  75 W13       29.98F WCI  22
TEKAMAH        CLOUDY    31  23  72 W13       30.03S WCI  21
COLUMBUS       CLEAR     27  23  85 SW9       30.04F WCI  18
ALBION         CLOUDY    26  22  84 W6        30.00F WCI  20
OMAHA EPPLEY   CLOUDY    34  23  64 W12       30.06S WCI  25
OFFUTT AFB     CLOUDY    33  24  70 W8        30.06S WCI  25
MILLARD        CLOUDY    33  25  73 W8        30.07F WCI  26
LINCOLN        CLEAR     27  21  78 SW8       30.09F WCI  19
NEBRASKA CITY  CLOUDY    28  28  96 W9        30.10R WCI  20
BEATRICE       CLEAR     25  20  82 W7        30.10F WCI  17
FALLS CITY     CLOUDY    30  25  81 SW10      30.11F WCI  21

...NORTHERN KANSAS...

CITY           SKY/WX    TMP DP  RH WIND       PRES   REMARKS
GOODLAND       CLOUDY    22  16  78 SW15      30.06F WCI   9
HILL CITY      CLOUDY    19  15  84 W3        30.11F
NORTON         SUNNY     18  10  73 SW8       30.07F WCI   7
PHILLIPSBURG   CLEAR     19  16  86 SW6       30.10F WCI  11
SMITH CENTER   CLEAR     16  14  93 S3        30.12F
HAYS           CLOUDY    18  15  88 W7        30.15F WCI   9
RUSSELL        CLOUDY    19  18  95 SW12      30.14F WCI   7
CONCORDIA      CLEAR     25  22  88 SW9       30.13F WCI  15
SALINA         CLEAR     23  21  92 SW7       30.18F WCI  15
TOPEKA         CLEAR     31  29  92 W5        30.16F WCI  26



USA.gov is the U.S. government's official web portal to all federal, state and local government web resources and services.